SCP
-0 0 -0 -0 -0 -0 0 0 0 0 0 0 0 1 0 0 0 0 0 0 0 0 0 0 0 0 -0 0 0 0 0 0 0 0 0 0 0 0 0 0 0 0 0 0
-0 -0 -0 0 0 0 -0 0 0 0 0 0 0 0 1 0 0 0 0 0 0 0 0 -0 0 0 0 0 0 0 0 0 0 0 0 0 0 0 0 0 0 0 0 0
0 -0 0 0 0 0 0 0 0 -0 0 0 0 0 0 -0 -0 0 0 0 0 0 0 0 0 0 0 0 0 0 0 -0 0 0 0 0 0 0 0 0 0 0 0 0
-0 0 -0 0 0 0 0 0 0 0 0 0 0 0 0 0 0 0 0 0 0 0 0 0 0 0 0 0 0 0 0 0 0 0 0 0 0 0 0 0 0 0 0 0
0 0 0 0 0 0 0 0 0 0 0 0 0 0 0 0 -0 0 0 0 0 0 0 0 0 0 0 0 0 0 0 0 0 0 0 0 0 0 0 0 0 0 0 0
0 0 0 0 0 0 0 0 0 0 0 0 0 0 0 0 0 0 0 0 0 0 0 0 0 0 0 0 0 0 0 0 0 0 0 0 0 0 0 0 0 0 0 0
0 -0 -0 0 -0 0 0 0 0 0 -0 0 0 0 0 0 0 0 0 0 0 0 0 0 0 0 0 0 0 0 0 0 0 0 0 0 0 0 0 0 0 0 0 0
0 0 0 -0 0 0 0 0 0 0 0 0 0 0 0 0 0 0 0 0 0 0 0 0 0 0 0 0 0 0 0 0 0 0 0 0 0 0 0 0 0 0 0 0
0 0 -0 0 0 0 0 0 0 0 -0 0 0 0 0 0 0 0 0 0 0 0 0 0 0 0 0 0 0 0 0 0 0 0 0 0 0 0 0 0 0 0 0 0
0 0 0 0 0 0 0 0 0 0 -0 0 0 0 0 0 0 0 0 0 0 0 0 0 0 0 0 0 0 0 0 0 0 0 0 0 0 0 0 0 0 0 0 0
0 0 0 0 0 0 0 0 0 0 -0 0 0 0 0 0 0 0 0 0 0 0 0 0 0 0 0 0 0 0 0 0 0 0 0 0 0 0 0 0 0 0 -0 -0
0 0 0 0 0 0 0 0 0 0 -0 -0 -0 0 0 0 0 0 0 0 0 0 0 0 0 0 0 0 0 0 0 0 0 0 0 0 0 0 0 0 0 0 0 0
0 0 0 0 0 0 0 0 -0 -0 0 0 0 0 0 0 0 0 0 0 0 0 0 0 0 0 0 0 0 0 0 0 0 0 0 0 0 0 0 0 0 0 0 -0
0 0 0 0 0 0 0 0 -0 0 0 0 0 0 0 0 0 0 0 0 0 0 0 0 0 0 0 0 0 0 0 0 0 0 0 0 0 0 0 0 0 0 0 0
0 0 -0 0 0 0 0 -0 0 0 0 0 0 0 0 0 0 0 0 0 0 0 0 0 0 0 0 0 0 0 0 0 0 0 0 0 0 0 0 0 0 0 0 0
0 0 -0 0 0 -0 0 0 -0 0 0 0 0 0 0 0 0 0 0 0 0 0 0 0 0 0 0 0 0 0 0 0 0 0 0 0 0 0 0 0 0 0 0 0
0 0 0 0 0 0 -0 -0 0 0 0 0 0 0 0 0 0 0 0 0 0 0 0 0 0 0 0 0 0 0 0 0 0 0 0 0 0 0 0 0 0 0 0 0
0 -0 -0 0 0 0 0 -0 0 0 0 0 0 0 0 0 0 0 0 0 0 0 0 0 0 0 0 0 -0 0 0 0 0 0 0 0 0 0 0 0 0 0 0 0
0 0 -0 -0 0 -0 -0 -0 0 0 0 0 0 0 0 0 0 0 0 0 0 0 0 0 0 -0 0 0 0 0 0 0 0 0 0 0 0 0 0 0 0 0 0 0
-0 -0 -0 0 -0 0 0 0 0 0 0 0 0 0 0 0 0 0 0 0 0 0 0 0 -0 0 0 -0 -0 0 0 0 0 0 0 0 0 0 0 0 0 0 0 0
0 0 0 0 0 -0 -0 -0 0 0 0 0 0 0 0 0 0 0 0 0 0 0 0 0 0 0 0 0 0 0 0 0 0 0 0 0 0 0 0 0 0 0 0 0
0 0 0 0 0 0 -0 0 0 0 0 0 0 0 0 0 0 0 0 0 0 0 0 -0 -0 -0 -0 0 0 0 0 0 0 0 0 0 0 0 0 0 0 0 0 0
0 0 0 0 0 0 0 0 0 0 0 0 0 0 0 0 0 0 0 0 0 0 -0 -0 -0 -0 -0 0 0 0 0 0 0 0 0 0 0 0 0 -0 0 0 0 0
-0 -0 -0 0 0 0 0 0 0 0 0 0 0 0 0 0 0 0 0 0 0 0 0 0 0 0 -0 -0 0 -0 0 0 0 0 0 0 0 -0 0 0 -0 0 0 0
-0 -0 -0 0 0 0 0 0 0 0 0 0 0 0 0 0 0 0 0 0 0 0 0 0 0 -0 -0 0 0 0 0 0 0 0 0 0 -0 0 0 0 0 -0 -0 0
-0 -0 0 0 0 0 0 0 0 0 0 0 0 0 0 0 0 0 0 0 0 0 -0 0 -0 -0 0 0 -0 0 0 0 0 0 -0 -0 0 0 0 0 0 0 -0 -0
Wind_Speed_500mb
30 20 17 13 22 20 18 9 7 7 15 28 10 29 30 52 45 40 31 23 21 23 26 22 18 17 18 14 22 24 29 33 32 30 28 25 28 20 22 14 19 15 19 24
25 2 21 13 15 21 25 11 11 7 20 35 29 16 22 49 47 44 33 26 24 23 27 17 25 8 12 12 11 17 23 36 31 35 30 29 26 31 14 24 28 20 36 30
26 29 17 13 22 19 18 22 25 34 20 34 10 24 34 34 37 33 22 31 26 26 27 26 18 15 14 18 15 26 26 34 25 26 33 31 30 33 37 37 34 34 31 32
13 16 14 15 14 23 18 21 32 36 34 20 16 5 8 10 15 15 26 37 33 33 27 23 21 14 28 11 25 26 24 20 24 37 35 37 32 34 35 29 28 28 30 28
1 10 14 22 24 19 23 33 31 40 39 11 0 10 9 26 21 13 28 29 36 30 23 16 16 22 16 15 18 26 24 26 33 46 38 37 34 34 31 33 29 23 19 23
9 10 10 20 13 6 23 33 45 35 18 7 10 2 14 17 13 25 24 31 26 17 8 14 15 25 20 17 23 31 32 39 49 46 34 39 44 39 35 36 29 25 24 24
11 39 51 14 22 28 40 35 21 20 22 23 14 28 15 31 31 28 24 18 15 11 10 13 15 20 19 30 27 16 30 38 39 33 38 45 38 33 34 35 35 33 29 30
4 2 28 11 15 19 25 25 20 30 28 29 36 13 9 26 27 18 18 18 11 12 22 30 19 24 30 21 24 32 32 31 34 41 43 41 37 36 38 38 35 24 24 25
22 1 29 8 14 24 14 24 26 22 33 18 15 16 7 8 13 19 23 10 11 29 24 23 27 22 18 30 32 28 30 40 40 44 35 35 39 37 38 35 32 23 22 20
21 24 8 16 14 26 26 28 16 15 17 22 18 25 11 18 15 20 17 39 28 19 24 31 36 28 29 32 36 37 38 35 41 38 33 35 38 48 34 37 31 23 18 15
22 14 29 30 6 17 19 22 14 7 5 9 7 13 17 27 20 23 29 29 29 30 23 29 32 32 36 37 38 39 40 34 34 35 40 48 47 31 32 38 30 26 17 18
18 8 15 20 20 10 23 15 19 12 20 18 29 10 18 23 21 27 27 25 20 23 31 31 35 35 38 34 34 38 33 32 33 31 42 41 39 38 35 38 29 23 20 17
20 12 12 2 17 18 10 19 19 18 16 2 8 8 20 24 25 25 29 19 18 28 29 29 30 37 29 43 31 29 34 29 38 37 49 37 36 33 32 36 31 29 23 16
12 7 9 13 16 8 10 18 20 21 16 18 23 25 19 22 21 27 18 23 27 25 28 27 30 30 35 31 28 31 26 29 33 37 40 50 42 38 38 36 29 23 23 21
6 10 9 13 11 11 8 18 12 17 16 14 27 28 18 14 19 25 22 22 28 30 26 28 30 30 31 25 26 25 25 30 34 34 41 37 40 41 38 32 28 25 23 20
8 8 18 20 5 5 4 15 28 26 24 23 19 18 16 26 25 23 19 23 21 26 23 25 23 23 22 24 22 24 26 28 34 35 39 41 34 38 38 39 42 36 34 26
6 2 9 3 30 14 16 25 21 20 23 23 19 22 24 24 15 15 17 22 25 23 21 21 20 21 18 20 18 21 23 26 29 33 30 35 39 41 27 25 31 33 32 29
6 11 14 9 21 5 9 21 23 22 21 22 22 24 26 14 26 24 21 22 22 19 19 20 18 16 17 16 15 21 22 25 29 34 30 31 35 29 30 31 32 33 33 37
5 9 3 7 6 27 21 24 19 16 27 33 25 29 31 27 23 23 20 21 19 15 16 15 15 12 13 14 20 23 23 22 21 27 24 33 35 34 31 39 32 33 37 40
5 12 13 6 7 7 15 23 21 21 10 33 29 29 28 29 11 16 17 17 16 12 14 13 10 13 13 16 20 21 23 21 20 20 19 25 32 27 32 33 33 30 25 27
13 9 5 6 3 13 27 34 25 11 11 25 23 27 23 21 23 19 11 14 12 7 11 9 9 10 11 19 19 21 22 18 18 15 15 17 21 25 29 34 38 38 33 35
12 10 7 14 13 9 38 20 14 15 18 20 22 21 18 20 18 11 10 9 8 8 8 6 6 8 12 16 17 20 15 18 14 14 15 18 24 21 33 36 33 37 40 37
10 15 10 13 11 20 23 22 16 17 17 19 18 14 10 9 10 6 5 6 4 7 7 4 8 7 10 16 13 14 14 15 8 17 22 21 20 31 26 31 29 22 26 27
25 53 17 14 23 20 17 14 16 17 16 15 15 12 11 16 7 5 4 0 3 3 5 5 6 7 8 13 13 7 9 10 11 11 15 17 25 22 26 19 35 31 19 18
21 21 15 15 24 17 22 18 13 11 11 12 12 11 9 11 8 7 4 4 3 3 4 4 3 7 8 7 11 14 14 11 9 12 13 14 11 12 21 24 23 36 39 27
32 20 11 8 21 20 17 11 8 8 10 9 6 6 9 10 7 5 8 5 4 3 1 3 4 8 5 6 7 7 8 13 10 15 9 10 15 18 13 19 12 19 28 33
Wind_Direction_500mb
195 218 246 31 222 320 1 143 63 306 301 311 344 144 157 125 126 116 123 123 122 123 102 96 108 105 75 32 44 28 19 13 8 6 359 350 340 341 326 346 333 290 303 310
210 254 237 359 334 316 322 353 80 277 249 255 294 194 144 141 122 122 142 144 143 142 139 120 94 95 70 53 34 360 357 354 348 10 1 341 347 331 343 347 335 320 328 316
121 226 22 320 312 6 23 355 343 325 257 273 294 37 48 37 87 123 122 133 124 117 111 104 90 65 31 16 356 5 358 6 358 354 346 330 323 307 327 320 320 316 320 311
96 73 311 276 50 8 346 352 324 312 308 332 92 262 137 62 60 148 131 107 114 113 101 96 87 46 336 356 23 11 2 8 344 342 342 332 336 328 317 328 311 320 321 333
324 298 275 36 16 354 344 327 297 293 284 68 352 124 79 150 229 144 103 106 113 111 102 105 3 40 12 2 17 5 347 339 334 341 338 332 319 318 318 315 316 319 341 331
105 19 354 356 329 285 295 319 310 295 303 302 126 351 40 31 101 108 106 106 103 105 75 353 67 21 20 9 354 342 357 349 341 348 344 334 335 337 339 338 335 338 333 305
300 13 345 331 338 3 353 335 324 347 327 335 346 67 39 64 64 104 123 120 112 68 21 57 55 23 4 356 351 1 343 349 350 338 340 342 348 351 347 340 332 336 337 324
290 51 232 293 358 348 341 346 344 325 316 301 46 61 32 59 90 103 119 125 77 53 42 42 39 16 350 14 357 345 354 353 338 333 345 353 345 337 332 327 328 324 311 325
318 22 256 82 337 318 9 337 328 286 277 273 122 93 84 131 90 85 109 72 37 59 47 26 350 5 36 19 8 9 4 352 346 353 356 344 344 349 343 347 343 338 332 339
324 338 24 312 6 46 2 328 348 332 322 338 103 80 75 107 108 91 61 78 76 59 50 18 56 42 24 9 354 346 345 348 359 0 350 344 349 345 345 352 348 347 1 33
24 342 314 321 50 360 17 8 350 359 302 338 274 78 77 85 62 78 88 72 59 57 20 30 33 23 13 4 360 3 6 3 4 356 352 350 352 6 1 359 2 14 26 53
55 315 307 334 69 29 59 20 10 349 343 39 328 65 76 59 58 92 92 75 61 24 34 11 22 12 3 7 359 2 10 12 14 2 359 1 11 17 11 9 21 34 39 51
355 32 318 78 80 15 51 19 13 347 296 99 333 96 62 51 75 70 68 53 42 42 21 31 16 2 11 1 10 6 14 18 10 358 8 11 15 12 16 23 26 36 47 44
335 283 281 329 29 303 58 51 11 44 22 350 37 96 59 40 27 97 64 27 19 30 40 32 12 16 8 11 1 15 16 12 3 4 12 21 21 17 28 23 24 33 34 42
14 301 306 67 360 22 45 45 46 26 44 356 23 48 39 29 20 43 37 30 11 35 39 21 19 19 15 19 15 13 19 7 10 17 23 27 30 22 32 31 34 32 36 39
65 336 298 22 66 17 64 65 24 23 6 22 37 57 29 40 45 52 44 12 31 34 38 14 22 19 12 13 18 15 15 12 10 14 8 17 21 17 38 50 49 47 40 35
332 299 274 42 265 253 48 30 27 8 48 43 21 16 1 16 52 107 56 41 46 48 24 21 29 24 14 19 14 13 18 13 14 11 18 9 24 30 28 22 40 40 45 53
285 320 345 202 224 97 97 49 21 1 51 49 26 1 1 30 76 68 51 61 44 40 32 14 22 26 22 33 9 18 8 13 8 17 13 17 19 16 31 32 33 50 62 55
14 94 340 285 189 116 26 33 12 359 53 27 6 355 1 11 101 74 66 57 58 45 38 21 24 35 40 13 12 355 13 17 11 15 16 31 39 38 49 62 68 72 60 39
224 241 268 13 316 113 42 4 1 320 54 3 7 4 0 346 55 71 77 57 42 41 29 24 33 40 32 12 346 4 2 3 15 20 34 54 39 42 59 55 36 26 27 37
290 253 165 146 63 84 7 16 331 37 7 1 11 10 22 36 73 105 68 65 51 48 33 37 52 41 14 355 1 6 10 18 14 12 25 21 38 50 56 55 48 44 43 64
270 71 317 22 25 48 13 28 45 4 5 23 13 20 28 83 84 76 48 39 30 53 37 32 41 8 5 347 12 6 19 34 29 61 26 42 65 56 47 31 39 49 49 50
50 55 63 41 91 77 56 47 42 23 31 18 23 22 12 81 87 66 67 43 59 45 38 27 20 359 352 2 0 31 37 63 56 63 64 48 56 46 51 25 36 53 51 51
66 55 80 71 360 71 49 75 60 37 34 28 27 26 34 95 54 72 55 251 355 351 39 342 36 6 3 20 45 54 90 56 74 43 50 54 52 66 56 36 36 37 36 49
45 39 72 62 12 93 57 48 43 48 31 28 34 44 47 83 81 33 59 66 102 67 63 20 20 0 25 33 70 73 65 38 47 59 44 29 16 349 338 3 32 47 42 40
32 24 56 60 44 33 46 47 41 33 27 22 42 64 77 79 85 47 96 85 113 67 342 16 312 12 94 85 67 58 70 37 40 24 45 44 14 4 340 323 7 36 37 36
Wind_Speed_850mb
30 20 17 13 22 20 18 9 7 7 15 28 10 29 30 52 45 40 31 23 21 23 26 22 18 17 18 14 22 24 29 33 32 30 28 25 28 20 22 14 19 15 19 24
25 2 21 13 15 21 25 11 11 7 20 35 29 16 22 49 47 44 33 26 24 23 27 17 25 8 12 12 11 17 23 36 31 35 30 29 26 31 14 24 28 20 36 30
26 29 17 13 22 19 18 22 25 34 20 34 10 24 34 34 37 33 22 31 26 26 27 26 18 15 14 18 15 26 26 34 25 26 33 31 30 33 37 37 34 34 31 32
13 16 14 15 14 23 18 21 32 36 34 20 16 5 8 10 15 15 26 37 33 33 27 23 21 14 28 11 25 26 24 20 24 37 35 37 32 34 35 29 28 28 30 28
1 10 14 22 24 19 23 33 31 40 39 11 0 10 9 26 21 13 28 29 36 30 23 16 16 22 16 15 18 26 24 26 33 46 38 37 34 34 31 33 29 23 19 23
9 10 10 20 13 6 23 33 45 35 18 7 10 2 14 17 13 25 24 31 26 17 8 14 15 25 20 17 23 31 32 39 49 46 34 39 44 39 35 36 29 25 24 24
11 39 51 14 22 28 40 35 21 20 22 23 14 28 15 31 31 28 24 18 15 11 10 13 15 20 19 30 27 16 30 38 39 33 38 45 38 33 34 35 35 33 29 30
4 2 28 11 15 19 25 25 20 30 28 29 36 13 9 26 27 18 18 18 11 12 22 30 19 24 30 21 24 32 32 31 34 41 43 41 37 36 38 38 35 24 24 25
22 1 29 8 14 24 14 24 26 22 33 18 15 16 7 8 13 19 23 10 11 29 24 23 27 22 18 30 32 28 30 40 40 44 35 35 39 37 38 35 32 23 22 20
21 24 8 16 14 26 26 28 16 15 17 22 18 25 11 18 15 20 17 39 28 19 24 31 36 28 29 32 36 37 38 35 41 38 33 35 38 48 34 37 31 23 18 15
22 14 29 30 6 17 19 22 14 7 5 9 7 13 17 27 20 23 29 29 29 30 23 29 32 32 36 37 38 39 40 34 34 35 40 48 47 31 32 38 30 26 17 18
18 8 15 20 20 10 23 15 19 12 20 18 29 10 18 23 21 27 27 25 20 23 31 31 35 35 38 34 34 38 33 32 33 31 42 41 39 38 35 38 29 23 20 17
20 12 12 2 17 18 10 19 19 18 16 2 8 8 20 24 25 25 29 19 18 28 29 29 30 37 29 43 31 29 34 29 38 37 49 37 36 33 32 36 31 29 23 16
12 7 9 13 16 8 10 18 20 21 16 18 23 25 19 22 21 27 18 23 27 25 28 27 30 30 35 31 28 31 26 29 33 37 40 50 42 38 38 36 29 23 23 21
6 10 9 13 11 11 8 18 12 17 16 14 27 28 18 14 19 25 22 22 28 30 26 28 30 30 31 25 26 25 25 30 34 34 41 37 40 41 38 32 28 25 23 20
8 8 18 20 5 5 4 15 28 26 24 23 19 18 16 26 25 23 19 23 21 26 23 25 23 23 22 24 22 24 26 28 34 35 39 41 34 38 38 39 42 36 34 26
6 2 9 3 30 14 16 25 21 20 23 23 19 22 24 24 15 15 17 22 25 23 21 21 20 21 18 20 18 21 23 26 29 33 30 35 39 41 27 25 31 33 32 29
6 11 14 9 21 5 9 21 23 22 21 22 22 24 26 14 26 24 21 22 22 19 19 20 18 16 17 16 15 21 22 25 29 34 30 31 35 29 30 31 32 33 33 37
5 9 3 7 6 27 21 24 19 16 27 33 25 29 31 27 23 23 20 21 19 15 16 15 15 12 13 14 20 23 23 22 21 27 24 33 35 34 31 39 32 33 37 40
5 12 13 6 7 7 15 23 21 21 10 33 29 29 28 29 11 16 17 17 16 12 14 13 10 13 13 16 20 21 23 21 20 20 19 25 32 27 32 33 33 30 25 27
13 9 5 6 3 13 27 34 25 11 11 25 23 27 23 21 23 19 11 14 12 7 11 9 9 10 11 19 19 21 22 18 18 15 15 17 21 25 29 34 38 38 33 35
12 10 7 14 13 9 38 20 14 15 18 20 22 21 18 20 18 11 10 9 8 8 8 6 6 8 12 16 17 20 15 18 14 14 15 18 24 21 33 36 33 37 40 37
10 15 10 13 11 20 23 22 16 17 17 19 18 14 10 9 10 6 5 6 4 7 7 4 8 7 10 16 13 14 14 15 8 17 22 21 20 31 26 31 29 22 26 27
25 53 17 14 23 20 17 14 16 17 16 15 15 12 11 16 7 5 4 0 3 3 5 5 6 7 8 13 13 7 9 10 11 11 15 17 25 22 26 19 35 31 19 18
21 21 15 15 24 17 22 18 13 11 11 12 12 11 9 11 8 7 4 4 3 3 4 4 3 7 8 7 11 14 14 11 9 12 13 14 11 12 21 24 23 36 39 27
32 20 11 8 21 20 17 11 8 8 10 9 6 6 9 10 7 5 8 5 4 3 1 3 4 8 5 6 7 7 8 13 10 15 9 10 15 18 13 19 12 19 28 33
Wind_Direction_850mb
195 218 246 31 222 320 1 143 63 306 301 311 344 144 157 125 126 116 123 123 122 123 102 96 108 105 75 32 44 28 19 13 8 6 359 350 340 341 326 346 333 290 303 310
210 254 237 359 334 316 322 353 80 277 249 255 294 194 144 141 122 122 142 144 143 142 139 120 94 95 70 53 34 360 357 354 348 10 1 341 347 331 343 347 335 320 328 316
121 226 22 320 312 6 23 355 343 325 257 273 294 37 48 37 87 123 122 133 124 117 111 104 90 65 31 16 356 5 358 6 358 354 346 330 323 307 327 320 320 316 320 311
96 73 311 276 50 8 346 352 324 312 308 332 92 262 137 62 60 148 131 107 114 113 101 96 87 46 336 356 23 11 2 8 344 342 342 332 336 328 317 328 311 320 321 333
324 298 275 36 16 354 344 327 297 293 284 68 352 124 79 150 229 144 103 106 113 111 102 105 3 40 12 2 17 5 347 339 334 341 338 332 319 318 318 315 316 319 341 331
105 19 354 356 329 285 295 319 310 295 303 302 126 351 40 31 101 108 106 106 103 105 75 353 67 21 20 9 354 342 357 349 341 348 344 334 335 337 339 338 335 338 333 305
300 13 345 331 338 3 353 335 324 347 327 335 346 67 39 64 64 104 123 120 112 68 21 57 55 23 4 356 351 1 343 349 350 338 340 342 348 351 347 340 332 336 337 324
290 51 232 293 358 348 341 346 344 325 316 301 46 61 32 59 90 103 119 125 77 53 42 42 39 16 350 14 357 345 354 353 338 333 345 353 345 337 332 327 328 324 311 325
318 22 256 82 337 318 9 337 328 286 277 273 122 93 84 131 90 85 109 72 37 59 47 26 350 5 36 19 8 9 4 352 346 353 356 344 344 349 343 347 343 338 332 339
324 338 24 312 6 46 2 328 348 332 322 338 103 80 75 107 108 91 61 78 76 59 50 18 56 42 24 9 354 346 345 348 359 0 350 344 349 345 345 352 348 347 1 33
24 342 314 321 50 360 17 8 350 359 302 338 274 78 77 85 62 78 88 72 59 57 20 30 33 23 13 4 360 3 6 3 4 356 352 350 352 6 1 359 2 14 26 53
55 315 307 334 69 29 59 20 10 349 343 39 328 65 76 59 58 92 92 75 61 24 34 11 22 12 3 7 359 2 10 12 14 2 359 1 11 17 11 9 21 34 39 51
355 32 318 78 80 15 51 19 13 347 296 99 333 96 62 51 75 70 68 53 42 42 21 31 16 2 11 1 10 6 14 18 10 358 8 11 15 12 16 23 26 36 47 44
335 283 281 329 29 303 58 51 11 44 22 350 37 96 59 40 27 97 64 27 19 30 40 32 12 16 8 11 1 15 16 12 3 4 12 21 21 17 28 23 24 33 34 42
14 301 306 67 360 22 45 45 46 26 44 356 23 48 39 29 20 43 37 30 11 35 39 21 19 19 15 19 15 13 19 7 10 17 23 27 30 22 32 31 34 32 36 39
65 336 298 22 66 17 64 65 24 23 6 22 37 57 29 40 45 52 44 12 31 34 38 14 22 19 12 13 18 15 15 12 10 14 8 17 21 17 38 50 49 47 40 35
332 299 274 42 265 253 48 30 27 8 48 43 21 16 1 16 52 107 56 41 46 48 24 21 29 24 14 19 14 13 18 13 14 11 18 9 24 30 28 22 40 40 45 53
285 320 345 202 224 97 97 49 21 1 51 49 26 1 1 30 76 68 51 61 44 40 32 14 22 26 22 33 9 18 8 13 8 17 13 17 19 16 31 32 33 50 62 55
14 94 340 285 189 116 26 33 12 359 53 27 6 355 1 11 101 74 66 57 58 45 38 21 24 35 40 13 12 355 13 17 11 15 16 31 39 38 49 62 68 72 60 39
224 241 268 13 316 113 42 4 1 320 54 3 7 4 0 346 55 71 77 57 42 41 29 24 33 40 32 12 346 4 2 3 15 20 34 54 39 42 59 55 36 26 27 37
290 253 165 146 63 84 7 16 331 37 7 1 11 10 22 36 73 105 68 65 51 48 33 37 52 41 14 355 1 6 10 18 14 12 25 21 38 50 56 55 48 44 43 64
270 71 317 22 25 48 13 28 45 4 5 23 13 20 28 83 84 76 48 39 30 53 37 32 41 8 5 347 12 6 19 34 29 61 26 42 65 56 47 31 39 49 49 50
50 55 63 41 91 77 56 47 42 23 31 18 23 22 12 81 87 66 67 43 59 45 38 27 20 359 352 2 0 31 37 63 56 63 64 48 56 46 51 25 36 53 51 51
66 55 80 71 360 71 49 75 60 37 34 28 27 26 34 95 54 72 55 251 355 351 39 342 36 6 3 20 45 54 90 56 74 43 50 54 52 66 56 36 36 37 36 49
45 39 72 62 12 93 57 48 43 48 31 28 34 44 47 83 81 33 59 66 102 67 63 20 20 0 25 33 70 73 65 38 47 59 44 29 16 349 338 3 32 47 42 40
32 24 56 60 44 33 46 47 41 33 27 22 42 64 77 79 85 47 96 85 113 67 342 16 312 12 94 85 67 58 70 37 40 24 45 44 14 4 340 323 7 36 37 36